Погода в Степном

Россия / Челябинская область     53°52′35″N   59°04′54″E
темп.,
°C
ветер,
м/с
пор.,
м/с
влажн.,
%
обл.,
%
осадки,
мм/ч
давл.,
гПа
погр.,
м
27 января, чт
чт2723:00−17ююз389969 0.0 1025103
02:00−18ююз359939 0.0 102558
05:00−19юз3410052 0.0 102545
08:00−20зюз2310097 0.0 102631
11:00−15юз24959 0.0 102696
14:00−9юз488680 0.0 1025501
17:00−12юз239210 0.0 102630
20:00−18з229927 0.0 10289
28 января, пт
пт2823:00−20зсз21100100 0.0 10289
02:00−19зсз2199100 0.0 102810
05:00−19сз119986 0.0 10289
08:00−20сз2110084 0.0 10289
11:00−15ссз119521 0.0 102631
14:00−10юв1189100 0.0 102577
17:00−14св119564 0.0 10259
20:00−15с2196100 0.0 102511
29 января, сб
сб2923:00−13ссв2297100 0.1 102430
02:00−14ссв2298100 0.1 102417
05:00−15с2298100 0.1 102325
08:00−15с2298100 0.0 102326
11:00−12св2296100 0.1 102297
14:00−10св1290100 0.0 1021200
17:00−11всв1194100 0.0 102010
20:00−16з0098100 0.0 10219
30 января, вс
вс3023:00−17з1199100 0.0 10209
02:00−17з1197100 0.0 101910
05:00−16з2195100 0.0 101811
08:00−12зюз2191100 0.0 101734
11:00−11юз238888 0.0 101779
14:00−8ююз349143 0.0 1015181
17:00−10ю2599100 0.0 101584
20:00−12ююз37100100 0.0 1016104
31 января, пн
пн3123:00−6ююз51191100 0.0 1013255
02:00−7ююз5119498 0.0 1014260
05:00−10ююз489782 0.0 1016126
08:00−11ююз3896100 0.0 1017115
11:00−9ю4997100 0.0 1018266
14:00−5ююз51092100 0.1 1017608
17:00−4ююз51092100 0.1 1018439
20:00−5ююз51195100 0.1 1019370